Вернуться в каталог

STARLINK-11638

АктивенСвязьVLEO
NORAD 63269·PAYLOAD·🇺🇸 United States

Запущен Mar 15, 2025 с Cape Canaveral Space Force Station

Loading…

Ближайшие Пролёты (ближайшие 24 часа)

TLE

СвежийSource: CelesTrak SupGP

Эпоха: Sep 15, 2026, 02:08 UTC

1 63269C 25053E   26258.08937500 -.00071610  00000+0 -55596-3 0  2583
2 63269  43.0012  50.3231 0001724 271.5887 320.9984 15.70883737    19

Отслеживайте STARLINK-11638 в реальном времени с AllMySat

Download on the App Store